﻿_id,日時,平均風速(m/s),平均風向,最大瞬間風速(m/s),最大風速時風向,気温(℃),湿度(%),10分間移動積算雨量(mm),1時間移動積算雨量(mm),日雨量(mm),累計雨量(mm)
1,2022-03-14T00:00:00,3.6,南南西,5.8,南西,15.9,82.6,0,0,0,0
2,2022-03-14T00:01:00,3.5,南南西,5.8,南西,15.8,82.9,0,0,0,0
3,2022-03-14T00:02:00,3.5,南南西,5.8,南西,15.8,83.1,0,0,0,0
4,2022-03-14T00:03:00,3.5,南南西,5.8,南西,15.8,83.4,0,0,0,0
5,2022-03-14T00:04:00,3.6,南南西,5.8,南西,15.8,83.5,0,0,0,0
6,2022-03-14T00:05:00,3.4,南南西,5.5,南西,15.8,83.4,0,0,0,0
7,2022-03-14T00:06:00,3.3,南南西,5.5,南西,15.8,83.4,0,0,0,0
8,2022-03-14T00:07:00,3.3,南南西,5.5,南西,15.8,83.5,0,0,0,0
9,2022-03-14T00:08:00,3.4,南南西,5.8,南西,15.8,83.4,0,0,0,0
10,2022-03-14T00:09:00,3.5,南南西,6.1,南西,15.8,83.5,0,0,0,0
11,2022-03-14T00:10:00,3.8,南南西,6.9,南南西,15.8,83.5,0,0,0,0
12,2022-03-14T00:11:00,3.8,南南西,6.9,南南西,15.9,83.1,0,0,0,0
13,2022-03-14T00:12:00,3.9,南南西,6.9,南南西,15.9,82.8,0,0,0,0
14,2022-03-14T00:13:00,3.8,南南西,6.9,南南西,15.9,82.8,0,0,0,0
15,2022-03-14T00:14:00,3.8,南南西,6.9,南南西,15.9,82.9,0,0,0,0
16,2022-03-14T00:15:00,4,南南西,6.9,南南西,15.9,83.2,0,0,0,0
17,2022-03-14T00:16:00,4.2,南南西,6.9,南南西,15.9,83.5,0,0,0,0
18,2022-03-14T00:17:00,4.4,南南西,7.1,南南西,15.9,83.7,0,0,0,0
19,2022-03-14T00:18:00,4.4,南南西,7.1,南南西,15.8,83.7,0,0,0,0
20,2022-03-14T00:19:00,4.4,南西,7.1,南南西,15.8,83.8,0,0,0,0
21,2022-03-14T00:20:00,4.5,南西,8.2,南西,15.8,83.9,0,0,0,0
22,2022-03-14T00:21:00,4.4,南西,8.2,南西,15.9,83.6,0,0,0,0
23,2022-03-14T00:22:00,4.4,南西,8.2,南西,15.9,83.3,0,0,0,0
24,2022-03-14T00:23:00,4.6,南西,8.2,南西,15.9,83.6,0,0,0,0
25,2022-03-14T00:24:00,4.8,南西,8.2,南西,16,83.1,0,0,0,0
26,2022-03-14T00:25:00,5,南西,8.2,南西,15.9,83.1,0,0,0,0
27,2022-03-14T00:26:00,5,南西,8.2,南西,15.9,83.4,0,0,0,0
28,2022-03-14T00:27:00,5,南西,8.2,南西,15.9,83.3,0,0,0,0
29,2022-03-14T00:28:00,5.1,南西,8.2,南西,15.9,83.3,0,0,0,0
30,2022-03-14T00:29:00,5.3,南西,8.2,南西,15.9,83.7,0,0,0,0
31,2022-03-14T00:30:00,5.2,南南西,8.1,南西,15.9,84,0,0,0,0
32,2022-03-14T00:31:00,5.5,南南西,8.1,南西,15.8,84.3,0,0,0,0
33,2022-03-14T00:32:00,5.6,南南西,8.1,南西,15.8,84.7,0,0,0,0
34,2022-03-14T00:33:00,5.6,南南西,8.1,南西,15.8,85.1,0,0,0,0
35,2022-03-14T00:34:00,5.6,南南西,8.1,南西,15.7,85.5,0,0,0,0
36,2022-03-14T00:35:00,5.5,南南西,8.1,南西,15.6,85.8,0,0,0,0
37,2022-03-14T00:36:00,5.5,南南西,8.1,南西,15.5,86.5,0,0,0,0
38,2022-03-14T00:37:00,5.2,南南西,8.1,南西,15.5,87.1,0,0,0,0
39,2022-03-14T00:38:00,5,南南西,8.1,南西,15.4,87.6,0,0,0,0
40,2022-03-14T00:39:00,4.8,南南西,7.8,南南西,15.4,88,0,0,0,0
41,2022-03-14T00:40:00,4.8,南南西,7.8,南南西,15.3,88.5,0,0,0,0
42,2022-03-14T00:41:00,4.7,南南西,7.6,南南西,15.3,88.8,0,0,0,0
43,2022-03-14T00:42:00,4.6,南南西,7.6,南南西,15.2,89.2,0,0,0,0
44,2022-03-14T00:43:00,4.6,南南西,7,南南西,15.2,89.5,0,0,0,0
45,2022-03-14T00:44:00,4.6,南南西,7,南南西,15.2,89.4,0,0,0,0
46,2022-03-14T00:45:00,4.5,南南西,7,南南西,15.2,89.4,0,0,0,0
47,2022-03-14T00:46:00,4.4,南南西,7,南南西,15.2,89.5,0,0,0,0
48,2022-03-14T00:47:00,4.3,南南西,7,南南西,15.2,89.7,0,0,0,0
49,2022-03-14T00:48:00,4.2,南南西,7,南南西,15.2,89.7,0,0,0,0
50,2022-03-14T00:49:00,3.9,南南西,7,南南西,15.1,90,0,0,0,0
51,2022-03-14T00:50:00,3.9,南南西,7,南南西,15.1,90.5,0,0,0,0
52,2022-03-14T00:51:00,3.7,南南西,7,南南西,15.1,91.1,0,0,0,0
53,2022-03-14T00:52:00,3.6,南西,7,南南西,15.1,91,0,0,0,0
54,2022-03-14T00:53:00,3.4,南西,6.2,南南西,15.2,91.1,0,0,0,0
55,2022-03-14T00:54:00,3.3,南西,6.2,南南西,15.2,91,0,0,0,0
56,2022-03-14T00:55:00,3.1,南西,5.5,南西,15.2,90.8,0,0,0,0
57,2022-03-14T00:56:00,3.1,西南西,5.5,南西,15.2,90.5,0,0,0,0
58,2022-03-14T00:57:00,3.1,西南西,5.5,南西,15.3,90.4,0,0,0,0
59,2022-03-14T00:58:00,3.2,西南西,5.5,南西,15.3,90.3,0,0,0,0
60,2022-03-14T00:59:00,3.4,西,5.6,西北西,15.3,90.2,0,0,0,0
61,2022-03-14T01:00:00,3.5,西,6.7,西北西,15.3,90.1,0,0,0,0
62,2022-03-14T01:01:00,3.8,西,8,西北西,15.3,90.3,0,0,0,0
63,2022-03-14T01:02:00,4.1,西北西,8.3,西北西,15.4,90,0,0,0,0
64,2022-03-14T01:03:00,4.5,西北西,12,西,15.4,89.5,0,0,0,0
65,2022-03-14T01:04:00,4.7,西北西,12,西,15.3,86.7,0,0,0,0
66,2022-03-14T01:05:00,4.8,西北西,12,西,15.2,81.9,0,0,0,0
67,2022-03-14T01:06:00,5.3,西北西,13.2,北,15.1,80.4,0,0,0,0
68,2022-03-14T01:07:00,5.4,西北西,13.2,北,14.8,81,0.5,0.5,0.5,0.5
69,2022-03-14T01:08:00,5.6,北西,13.2,北,14.4,82.3,1,1,1,1
70,2022-03-14T01:09:00,5.9,北西,13.2,北,14.1,83.3,2,2,2,2
71,2022-03-14T01:10:00,5.8,北西,13.2,北,13.9,84.6,2.5,2.5,2.5,2.5
72,2022-03-14T01:11:00,5.3,北西,13.2,北,13.7,85.8,3.5,3.5,3.5,3.5
73,2022-03-14T01:12:00,4.9,北西,13.2,北,13.5,86.6,4,4,4,4
74,2022-03-14T01:13:00,4.1,北北西,13.2,北,13.4,87.3,4.5,4.5,4.5,4.5
75,2022-03-14T01:14:00,3.9,北北西,13.2,北,13.3,87.7,5,5,5,5
76,2022-03-14T01:15:00,3.9,北北西,13.2,北,13.2,87.9,5.5,5.5,5.5,5.5
77,2022-03-14T01:16:00,3.4,北北西,9.6,西,13.2,88.4,5.5,5.5,5.5,5.5
78,2022-03-14T01:17:00,3.4,北北西,9.6,西,13.1,88.8,5.5,6,6,6
79,2022-03-14T01:18:00,3.3,北北西,9.6,西,13.1,89.2,5,6,6,6
80,2022-03-14T01:19:00,2.9,北北西,6.7,北北西,13.1,89.2,4,6,6,6
81,2022-03-14T01:20:00,3,北,6.7,北北西,13.1,89.1,4,6.5,6.5,6.5
82,2022-03-14T01:21:00,3.2,北,6.7,北北西,13.1,89.4,3,6.5,6.5,6.5
83,2022-03-14T01:22:00,3.3,北,6.7,北北西,13.1,89.7,2.5,6.5,6.5,6.5
84,2022-03-14T01:23:00,3.5,北,6.7,北北西,13.1,89.9,2.5,7,7,7
85,2022-03-14T01:24:00,3.6,北,6.7,北北西,13.1,89.9,2,7,7,7
86,2022-03-14T01:25:00,3.6,北,6.7,北北西,13.1,89.5,1.5,7,7,7
87,2022-03-14T01:26:00,3.6,北,6.7,北北西,13.1,89.2,1.5,7,7,7
88,2022-03-14T01:27:00,3.5,北,6.7,北北西,13.1,89.1,1.5,7.5,7.5,7.5
89,2022-03-14T01:28:00,3.3,北北東,6.3,北西,13.1,89.1,1.5,7.5,7.5,7.5
90,2022-03-14T01:29:00,3.3,北北東,6.3,北西,13.1,89.3,1.5,7.5,7.5,7.5
91,2022-03-14T01:30:00,3.3,北北東,6.3,北西,13.1,89.4,1,7.5,7.5,7.5
92,2022-03-14T01:31:00,3.4,北北東,6.3,北西,13.1,89.4,1,7.5,7.5,7.5
93,2022-03-14T01:32:00,3.3,北北東,6.3,北西,13.1,89.4,1,7.5,7.5,7.5
94,2022-03-14T01:33:00,3.3,北東,6.3,北西,13.2,89,0.5,7.5,7.5,7.5
95,2022-03-14T01:34:00,3.3,北東,6.3,北西,13.2,88.7,0.5,7.5,7.5,7.5
96,2022-03-14T01:35:00,3.3,北東,5.5,北東,13.2,88.9,0.5,7.5,7.5,7.5
97,2022-03-14T01:36:00,3.4,北東,5.5,北東,13.1,89.3,0.5,7.5,7.5,7.5
98,2022-03-14T01:37:00,3.3,北東,5.5,北東,13.1,89.3,0.5,8,8,8
99,2022-03-14T01:38:00,3.1,北東,5.5,北東,13.2,89.3,0.5,8,8,8
100,2022-03-14T01:39:00,3,北東,5.5,北東,13.2,88.6,0.5,8,8,8
101,2022-03-14T01:40:00,2.9,北北東,5.5,北東,13.2,88.1,0.5,8,8,8
102,2022-03-14T01:41:00,2.8,北東,5.3,北北東,13.2,88.2,0.5,8,8,8
103,2022-03-14T01:42:00,2.7,北東,5.3,北北東,13.2,88.6,0.5,8,8,8
104,2022-03-14T01:43:00,2.8,北東,5.3,北北東,13.1,88.9,1,8.5,8.5,8.5
105,2022-03-14T01:44:00,2.6,北東,5.3,北北東,13.2,88.5,1,8.5,8.5,8.5
106,2022-03-14T01:45:00,2.3,北東,4.3,北北東,13.2,87.7,1,8.5,8.5,8.5
107,2022-03-14T01:46:00,2.1,北東,4.1,東北東,13.2,87.3,1,8.5,8.5,8.5
108,2022-03-14T01:47:00,2,北東,4.1,東北東,13.2,87.4,0.5,8.5,8.5,8.5
109,2022-03-14T01:48:00,2.1,東北東,4.1,東北東,13.1,87.9,0.5,8.5,8.5,8.5
110,2022-03-14T01:49:00,2.1,東北東,4.1,東北東,13.1,88.6,1,9,9,9
111,2022-03-14T01:50:00,2,東北東,4.1,東北東,13.1,88.9,1,9,9,9
112,2022-03-14T01:51:00,2.1,東北東,4.1,東北東,13.1,88.8,1,9,9,9
113,2022-03-14T01:52:00,2.1,東北東,4.1,東北東,13,89,1,9,9,9
114,2022-03-14T01:53:00,2.2,東北東,4,東,13,89.5,0.5,9,9,9
115,2022-03-14T01:54:00,2.3,東北東,4.2,東北東,12.9,90.2,0.5,9,9,9
116,2022-03-14T01:55:00,2.5,東北東,4.2,東北東,12.8,90.6,0.5,9,9,9
117,2022-03-14T01:56:00,2.7,東北東,4.2,東北東,12.7,91.3,0.5,9,9,9
118,2022-03-14T01:57:00,2.8,東北東,4.2,東北東,12.6,92,0.5,9,9,9
119,2022-03-14T01:58:00,2.9,東北東,4.2,東北東,12.6,92.7,0.5,9,9,9
120,2022-03-14T01:59:00,2.8,東,4.2,東北東,12.6,93.3,0,9,9,9
121,2022-03-14T02:00:00,2.7,東,4.2,東北東,12.5,93.7,0,9,9,9
122,2022-03-14T02:01:00,2.5,東,4.2,東北東,12.5,94,0,9,9,9
123,2022-03-14T02:02:00,2.3,東,4.2,東北東,12.5,94.5,0,9,9,9
124,2022-03-14T02:03:00,2,東,4.2,東北東,12.5,94.9,0,9,9,9
125,2022-03-14T02:04:00,1.7,東,4.2,東,12.5,95.3,0,9,9,9
126,2022-03-14T02:05:00,1.5,東,3.7,東,12.5,95.3,0,9,9,9
127,2022-03-14T02:06:00,1.3,南南東,3.6,東,12.4,95.5,0,9,9,9
128,2022-03-14T02:07:00,1.1,南南西,3.1,東,12.4,95.6,0,8.5,9,9
129,2022-03-14T02:08:00,1,南南西,2.1,南南西,12.4,95.8,0,8,9,9
130,2022-03-14T02:09:00,1,南西,2.1,南南西,12.4,95.9,0,7,9,9
131,2022-03-14T02:10:00,1,南西,2.1,南南西,12.4,96,0,6.5,9,9
132,2022-03-14T02:11:00,1.2,南西,2.1,南南西,12.4,96.1,0,5.5,9,9
133,2022-03-14T02:12:00,1.3,南南西,2.1,南南西,12.4,96.1,0,5,9,9
134,2022-03-14T02:13:00,1.2,南南西,2.1,南南西,12.4,96,0,4.5,9,9
135,2022-03-14T02:14:00,1.2,南南西,2.1,南南西,12.4,96.1,0,4,9,9
136,2022-03-14T02:15:00,1.2,南南西,2.1,南南西,12.4,96.1,0,3.5,9,9
137,2022-03-14T02:16:00,1.2,南南西,2.1,南南西,12.5,96.1,0,3.5,9,9
138,2022-03-14T02:17:00,1.1,南南西,2.1,南南西,12.5,96,0,3,9,9
139,2022-03-14T02:18:00,1.1,南南西,1.9,南南西,12.5,95.8,0,3,9,9
140,2022-03-14T02:19:00,1,南南西,1.9,南南西,12.6,95.7,0,3,9,9
141,2022-03-14T02:20:00,1,南南西,1.8,南南西,12.6,95.5,0,2.5,9,9
142,2022-03-14T02:21:00,1,南南西,2,南南西,12.6,95.2,0,2.5,9,9
143,2022-03-14T02:22:00,1,南南西,2,南南西,12.6,95.1,0,2.5,9,9
144,2022-03-14T02:23:00,1.1,南南西,2,南南西,12.5,95.2,0,2,9,9
145,2022-03-14T02:24:00,1.3,南南西,2.4,南南西,12.5,95.3,0,2,9,9
146,2022-03-14T02:25:00,1.3,南南西,2.6,南南西,12.4,95.4,0,2,9,9
147,2022-03-14T02:26:00,1.5,南南西,3,南南西,12.4,95.6,0,2,9,9
148,2022-03-14T02:27:00,1.7,南南西,3,南南西,12.4,95.7,0,1.5,9,9
149,2022-03-14T02:28:00,1.8,南南西,3,南南西,12.4,95.7,0,1.5,9,9
150,2022-03-14T02:29:00,1.9,南南西,3,南南西,12.4,95.8,0,1.5,9,9
151,2022-03-14T02:30:00,2,南南西,3,南南西,12.3,95.9,0,1.5,9,9
152,2022-03-14T02:31:00,2.1,南南西,3,南南西,12.3,96.1,0,1.5,9,9
153,2022-03-14T02:32:00,2.2,南南西,3,南南西,12.3,96.1,0,1.5,9,9
154,2022-03-14T02:33:00,2.3,南南西,3,南南西,12.2,96.3,0,1.5,9,9
155,2022-03-14T02:34:00,2.4,南南西,3.7,南南西,12.2,96.4,0,1.5,9,9
156,2022-03-14T02:35:00,2.4,南南西,3.7,南南西,12.2,96.4,0,1.5,9,9
157,2022-03-14T02:36:00,2.4,南南西,3.7,南南西,12.2,96.5,0,1.5,9,9
158,2022-03-14T02:37:00,2.5,南南西,3.7,南南西,12.2,96.6,0,1,9,9
159,2022-03-14T02:38:00,2.5,南南西,3.7,南南西,12.2,96.6,0,1,9,9
160,2022-03-14T02:39:00,2.5,南南西,3.7,南南西,12.2,96.7,0,1,9,9
161,2022-03-14T02:40:00,2.4,南南西,3.7,南南西,12.2,96.7,0,1,9,9
162,2022-03-14T02:41:00,2.3,南南西,3.7,南南西,12.2,96.8,0,1,9,9
163,2022-03-14T02:42:00,2.2,南南西,3.7,南南西,12.2,96.8,0,1,9,9
164,2022-03-14T02:43:00,2,南南西,3.7,南南西,12.3,96.8,0,0.5,9,9
165,2022-03-14T02:44:00,1.8,南南西,3,南南西,12.3,96.8,0,0.5,9,9
166,2022-03-14T02:45:00,1.6,南南西,3,南南西,12.3,96.7,0,0.5,9,9
167,2022-03-14T02:46:00,1.4,南西,3,南南西,12.2,96.7,0,0.5,9,9
168,2022-03-14T02:47:00,1.2,南西,3,南南西,12.3,96.9,0,0.5,9,9
169,2022-03-14T02:48:00,1,南西,3,南南西,12.3,96.9,0,0.5,9,9
170,2022-03-14T02:49:00,0.9,南西,2,南南西,12.3,96.7,0,0,9,9
171,2022-03-14T02:50:00,0.9,南西,1.7,東北東,12.3,96.7,0,0,9,9
172,2022-03-14T02:51:00,0.9,南,1.8,東,12.3,96.7,0,0,9,9
173,2022-03-14T02:52:00,1,東南東,1.8,東,12.2,96.7,0,0,9,9
174,2022-03-14T02:53:00,1,東,2,東,12.2,96.8,0,0,9,9
175,2022-03-14T02:54:00,1.1,東,2,東,12.3,96.7,0,0,9,9
176,2022-03-14T02:55:00,1.2,東,2,東,12.3,96.8,0,0,9,9
177,2022-03-14T02:56:00,1.3,東,2,東,12.3,96.7,0,0,9,9
178,2022-03-14T02:57:00,1.3,東,2,東,12.3,96.7,0,0,9,9
179,2022-03-14T02:58:00,1.3,東,2,東,12.3,96.7,0,0,9,9
180,2022-03-14T02:59:00,1.1,東,2,東,12.4,96.7,0,0,9,9
181,2022-03-14T03:00:00,1,東,2,東,12.4,96.6,0,0,9,9
182,2022-03-14T03:01:00,0.9,東,2,東,12.3,96.4,0,0,9,9
183,2022-03-14T03:02:00,0.8,東,2,東,12.4,96.5,0,0,9,9
184,2022-03-14T03:03:00,0.7,東,1.7,東南東,12.4,96.6,0,0,9,9
185,2022-03-14T03:04:00,0.6,東北東,1.7,東南東,12.4,96.4,0,0,9,9
186,2022-03-14T03:05:00,0.5,北東,1.6,東南東,12.3,96.3,0,0,9,9
187,2022-03-14T03:06:00,0.4,北東,1.2,東,12.3,96.3,0,0,9,9
188,2022-03-14T03:07:00,0.4,北東,1.1,北東,12.3,96.3,0,0,9,9
189,2022-03-14T03:08:00,0.5,北東,1.7,東南東,12.2,96.4,0,0,9,9
190,2022-03-14T03:09:00,0.6,東北東,1.7,東南東,12.2,96.4,0,0,9,9
191,2022-03-14T03:10:00,0.7,東北東,1.7,東南東,12.1,96.6,0,0,9,9
192,2022-03-14T03:11:00,0.7,東北東,1.7,東南東,12.1,96.7,0,0,9,9
193,2022-03-14T03:12:00,0.8,東,1.7,東南東,12.1,96.7,0,0,9,9
194,2022-03-14T03:13:00,0.9,東南東,1.8,南南東,12.1,96.7,0,0,9,9
195,2022-03-14T03:14:00,1.1,東南東,2.3,南南東,12.1,96.8,0,0,9,9
196,2022-03-14T03:15:00,1.3,南東,2.5,南南東,12,96.9,0,0,9,9
197,2022-03-14T03:16:00,1.4,南東,2.5,南南東,12,96.9,0,0,9,9
198,2022-03-14T03:17:00,1.6,南東,2.5,南南東,12,97,0,0,9,9
199,2022-03-14T03:18:00,1.6,南南東,2.5,南南東,12,97,0,0,9,9
200,2022-03-14T03:19:00,1.7,南南東,2.6,南東,12,97.1,0,0,9,9
201,2022-03-14T03:20:00,1.8,南南東,2.6,南東,12,97.1,0,0,9,9
202,2022-03-14T03:21:00,1.8,南南東,2.6,南東,12,97.1,0,0,9,9
203,2022-03-14T03:22:00,1.8,南南東,2.6,南東,12,97.2,0,0,9,9
204,2022-03-14T03:23:00,1.8,南南東,2.6,南東,12,97.2,0,0,9,9
205,2022-03-14T03:24:00,1.7,南南東,2.6,南東,12,97.2,0,0,9,9
206,2022-03-14T03:25:00,1.6,南,2.6,南東,12,97.3,0,0,9,9
207,2022-03-14T03:26:00,1.5,南,2.6,南東,12,97.4,0,0,9,9
208,2022-03-14T03:27:00,1.4,南,2.6,南東,12.1,97.4,0,0,9,9
209,2022-03-14T03:28:00,1.3,南南西,2.6,南東,12,97.3,0,0,9,9
210,2022-03-14T03:29:00,1.2,南南西,2.1,南南東,12,97.4,0,0,9,9
211,2022-03-14T03:30:00,1.1,南西,1.7,南南西,12,97.4,0,0,9,9
212,2022-03-14T03:31:00,1,南西,1.7,南南西,12,97.4,0,0,9,9
213,2022-03-14T03:32:00,1,南西,1.7,南南西,12,97.5,0,0,9,9
214,2022-03-14T03:33:00,1,南西,1.7,南南西,12,97.5,0,0,9,9
215,2022-03-14T03:34:00,0.9,西南西,1.4,西南西,12,97.5,0,0,9,9
216,2022-03-14T03:35:00,1,西南西,1.4,西南西,12,97.5,0,0,9,9
217,2022-03-14T03:36:00,1,西南西,1.4,西南西,12,97.5,0,0,9,9
218,2022-03-14T03:37:00,1,南西,1.4,西南西,12,97.5,0,0,9,9
219,2022-03-14T03:38:00,1.1,南西,1.5,南西,12,97.5,0,0,9,9
220,2022-03-14T03:39:00,1.1,南西,1.5,南西,12,97.6,0,0,9,9
221,2022-03-14T03:40:00,1.1,南西,1.5,南西,12,97.6,0,0,9,9
222,2022-03-14T03:41:00,1.1,南西,1.5,南西,12,97.6,0,0,9,9
223,2022-03-14T03:42:00,1,南西,1.5,南西,12.1,97.6,0,0,9,9
224,2022-03-14T03:43:00,1,南南西,1.5,南西,12.1,97.6,0,0,9,9
225,2022-03-14T03:44:00,1,南,1.5,南西,12.1,97.6,0,0,9,9
226,2022-03-14T03:45:00,1,南,1.5,南西,12.1,97.6,0,0,9,9
227,2022-03-14T03:46:00,1.1,南南東,1.6,南東,12.1,97.5,0,0,9,9
228,2022-03-14T03:47:00,1.1,南南東,1.8,南東,12,97.5,0,0,9,9
229,2022-03-14T03:48:00,1.1,南東,1.9,南東,12,97.5,0,0,9,9
230,2022-03-14T03:49:00,1.2,南東,1.9,南東,12,97.4,0,0,9,9
231,2022-03-14T03:50:00,1.2,南東,1.9,南東,11.9,97.5,0,0,9,9
232,2022-03-14T03:51:00,1.3,南東,1.9,南東,11.9,97.5,0,0,9,9
233,2022-03-14T03:52:00,1.3,南東,1.9,南東,11.9,97.5,0,0,9,9
234,2022-03-14T03:53:00,1.3,南東,1.9,南東,11.9,97.5,0,0,9,9
235,2022-03-14T03:54:00,1.3,南南東,1.9,南東,11.9,97.5,0,0,9,9
236,2022-03-14T03:55:00,1.3,南南東,1.9,南東,11.9,97.5,0,0,9,9
237,2022-03-14T03:56:00,1.3,南南東,1.9,南東,11.9,97.6,0,0,9,9
238,2022-03-14T03:57:00,1.3,南南東,2.1,南,11.9,97.6,0,0,9,9
239,2022-03-14T03:58:00,1.3,南南東,2.5,南,11.9,97.6,0,0,9,9
240,2022-03-14T03:59:00,1.4,南,2.7,南,11.8,97.6,0,0,9,9
241,2022-03-14T04:00:00,1.5,南,2.7,南,11.8,97.6,0,0,9,9
242,2022-03-14T04:01:00,1.5,南,2.7,南,11.8,97.6,0,0,9,9
243,2022-03-14T04:02:00,1.6,南,2.7,南,11.8,97.6,0,0,9,9
244,2022-03-14T04:03:00,1.7,南,2.7,南,11.8,97.6,0,0,9,9
245,2022-03-14T04:04:00,1.8,南南西,2.7,南,11.8,97.6,0,0,9,9
246,2022-03-14T04:05:00,1.9,南南西,2.7,南,11.8,97.6,0,0,9,9
247,2022-03-14T04:06:00,2,南南西,2.7,南,11.8,97.7,0,0,9,9
248,2022-03-14T04:07:00,2,南南西,2.7,南,11.8,97.7,0,0,9,9
249,2022-03-14T04:08:00,1.9,南南西,2.7,南,11.8,97.7,0,0,9,9
250,2022-03-14T04:09:00,1.8,南南西,2.6,南,11.8,97.7,0,0,9,9
251,2022-03-14T04:10:00,1.7,南南西,2.5,南南西,11.8,97.7,0,0,9,9
252,2022-03-14T04:11:00,1.7,南,2.5,南南西,11.7,97.7,0,0,9,9
253,2022-03-14T04:12:00,1.6,南,2.3,南南西,11.8,97.8,0,0,9,9
254,2022-03-14T04:13:00,1.5,南,2.2,南南西,11.8,97.8,0,0,9,9
255,2022-03-14T04:14:00,1.4,南,2.1,南,11.8,97.8,0,0,9,9
256,2022-03-14T04:15:00,1.4,南,2,南,11.8,97.8,0,0,9,9
257,2022-03-14T04:16:00,1.4,南,2,南南西,11.7,97.8,0,0,9,9
258,2022-03-14T04:17:00,1.4,南,2,南南西,11.7,97.8,0,0,9,9
259,2022-03-14T04:18:00,1.4,南,2,南南西,11.7,97.8,0,0,9,9
260,2022-03-14T04:19:00,1.4,南南西,2,南南西,11.7,97.8,0,0,9,9
261,2022-03-14T04:20:00,1.4,南南西,2,南南西,11.7,97.8,0,0,9,9
262,2022-03-14T04:21:00,1.4,南南西,2,南南西,11.7,97.8,0,0,9,9
263,2022-03-14T04:22:00,1.4,南南西,2,南南西,11.7,97.8,0,0,9,9
264,2022-03-14T04:23:00,1.4,南南西,2,南南西,11.7,97.8,0,0,9,9
265,2022-03-14T04:24:00,1.3,南西,2,南南西,11.7,97.8,0,0,9,9
266,2022-03-14T04:25:00,1.2,南西,2,南南西,11.8,97.9,0,0,9,9
267,2022-03-14T04:26:00,1.1,南西,1.9,南南西,11.8,97.9,0,0,9,9
268,2022-03-14T04:27:00,1,西南西,1.8,南西,11.8,97.9,0,0,9,9
269,2022-03-14T04:28:00,1,西南西,1.8,南西,11.8,97.9,0,0,9,9
270,2022-03-14T04:29:00,0.9,西,1.7,南西,11.7,97.9,0,0,9,9
271,2022-03-14T04:30:00,0.8,西,1.3,南西,11.7,97.8,0,0,9,9
272,2022-03-14T04:31:00,0.8,西北西,1.2,北北西,11.7,97.9,0,0,9,9
273,2022-03-14T04:32:00,0.9,西北西,1.6,北北西,11.7,97.9,0,0,9,9
274,2022-03-14T04:33:00,0.9,北西,1.6,北北西,11.7,97.9,0,0,9,9
275,2022-03-14T04:34:00,1,北西,1.6,北北西,11.8,97.9,0,0,9,9
276,2022-03-14T04:35:00,1,北北西,1.6,北北西,11.7,97.9,0,0,9,9
277,2022-03-14T04:36:00,1,北北西,1.6,北北西,11.8,97.9,0,0,9,9
278,2022-03-14T04:37:00,1,北北西,1.6,北北西,11.8,98,0,0,9,9
279,2022-03-14T04:38:00,1,北,1.6,北北西,11.9,98,0,0,9,9
280,2022-03-14T04:39:00,1.1,北,1.6,北北西,11.9,97.9,0,0,9,9
281,2022-03-14T04:40:00,1.1,北,1.6,北北西,11.9,97.9,0,0,9,9
282,2022-03-14T04:41:00,1,北,1.6,北北西,11.9,97.9,0,0,9,9
283,2022-03-14T04:42:00,1,北,1.5,北北東,11.9,97.9,0,0,9,9
284,2022-03-14T04:43:00,1,北,1.5,北北東,11.9,97.9,0,0,9,9
285,2022-03-14T04:44:00,1,北北東,1.8,北東,11.9,97.8,0,0,9,9
286,2022-03-14T04:45:00,1.1,北北東,1.9,北東,11.9,97.8,0,0,9,9
287,2022-03-14T04:46:00,1.1,北北東,1.9,北東,11.8,97.8,0,0,9,9
288,2022-03-14T04:47:00,1.1,北東,1.9,北東,11.8,97.8,0,0,9,9
289,2022-03-14T04:48:00,1.1,北東,1.9,北東,11.8,97.7,0,0,9,9
290,2022-03-14T04:49:00,1,北東,1.9,北東,11.7,97.8,0,0,9,9
291,2022-03-14T04:50:00,0.9,東北東,1.9,北東,11.8,97.8,0,0,9,9
292,2022-03-14T04:51:00,0.9,東,1.9,北東,11.7,97.8,0,0,9,9
293,2022-03-14T04:52:00,0.9,東,1.9,北東,11.7,97.8,0,0,9,9
294,2022-03-14T04:53:00,0.8,東南東,1.9,北東,11.7,97.8,0,0,9,9
295,2022-03-14T04:54:00,0.7,南東,1.9,北東,11.7,97.8,0,0,9,9
296,2022-03-14T04:55:00,0.6,南南東,1.4,北東,11.7,97.8,0,0,9,9
297,2022-03-14T04:56:00,0.5,南南東,1.1,東,11.7,97.8,0,0,9,9
298,2022-03-14T04:57:00,0.4,南南東,1,南,11.7,97.8,0,0,9,9
299,2022-03-14T04:58:00,0.4,南,1,南,11.7,97.8,0,0,9,9
300,2022-03-14T04:59:00,0.4,南,1,南,11.7,97.8,0,0,9,9
301,2022-03-14T05:00:00,0.3,南,1,南,11.7,97.9,0,0,9,9
302,2022-03-14T05:01:00,0.3,南南西,1,南,11.8,97.9,0,0,9,9
303,2022-03-14T05:02:00,0.2,静穏,1,南,11.7,97.8,0,0,9,9
304,2022-03-14T05:03:00,0.1,静穏,0.8,南南西,11.7,97.8,0,0,9,9
305,2022-03-14T05:04:00,0.1,静穏,0.7,南南西,11.7,97.8,0,0,9,9
306,2022-03-14T05:05:00,0.1,静穏,0.7,南南西,11.7,97.8,0,0,9,9
307,2022-03-14T05:06:00,0.2,静穏,0.7,南南西,11.7,97.8,0,0,9,9
308,2022-03-14T05:07:00,0.2,静穏,0.7,南南西,11.7,97.8,0,0,9,9
309,2022-03-14T05:08:00,0.2,静穏,0.7,南南西,11.6,97.8,0,0,9,9
310,2022-03-14T05:09:00,0.2,静穏,0.7,南南西,11.6,97.8,0,0,9,9
311,2022-03-14T05:10:00,0.2,静穏,0.7,南南西,11.6,97.8,0,0,9,9
312,2022-03-14T05:11:00,0.2,静穏,0.7,南南西,11.6,97.8,0,0,9,9
313,2022-03-14T05:12:00,0.2,静穏,0.7,南南西,11.6,97.8,0,0,9,9
314,2022-03-14T05:13:00,0.3,南,0.7,南南西,11.6,97.8,0,0,9,9
315,2022-03-14T05:14:00,0.3,南,0.9,南,11.6,97.8,0,0,9,9
316,2022-03-14T05:15:00,0.4,南,1.3,南,11.6,97.8,0,0,9,9
317,2022-03-14T05:16:00,0.5,南,1.4,南,11.6,97.8,0,0,9,9
318,2022-03-14T05:17:00,0.6,南,1.5,南,11.6,97.8,0,0,9,9
319,2022-03-14T05:18:00,0.7,南,1.5,南,11.6,97.9,0,0,9,9
320,2022-03-14T05:19:00,0.8,南,1.5,南,11.6,97.9,0,0,9,9
321,2022-03-14T05:20:00,0.9,南,1.5,南,11.6,97.9,0,0,9,9
322,2022-03-14T05:21:00,1,南,1.5,南,11.6,97.9,0,0,9,9
323,2022-03-14T05:22:00,1,南,1.5,南,11.6,97.9,0,0,9,9
324,2022-03-14T05:23:00,1.1,南,1.5,南,11.6,97.9,0,0,9,9
325,2022-03-14T05:24:00,1,南,1.5,南,11.5,97.9,0,0,9,9
326,2022-03-14T05:25:00,1,南南西,1.5,南,11.5,97.9,0,0,9,9
327,2022-03-14T05:26:00,0.9,南南西,1.5,南,11.6,97.9,0,0,9,9
328,2022-03-14T05:27:00,0.8,南南西,1.5,南,11.5,97.9,0,0,9,9
329,2022-03-14T05:28:00,0.7,南南西,1.3,南,11.5,97.9,0,0,9,9
330,2022-03-14T05:29:00,0.7,南南西,1.2,南,11.5,97.9,0,0,9,9
331,2022-03-14T05:30:00,0.7,南西,1.2,南,11.5,97.9,0,0,9,9
332,2022-03-14T05:31:00,0.7,南西,1.1,南南西,11.5,97.9,0,0,9,9
333,2022-03-14T05:32:00,0.7,南西,1.1,南南西,11.5,98,0,0,9,9
334,2022-03-14T05:33:00,0.7,南西,1.1,南南西,11.5,98,0,0,9,9
335,2022-03-14T05:34:00,0.7,南西,1.1,南南西,11.5,98,0,0,9,9
336,2022-03-14T05:35:00,0.7,南西,1.1,南南西,11.5,98,0,0,9,9
337,2022-03-14T05:36:00,0.6,南西,1.1,南南西,11.5,97.9,0,0,9,9
338,2022-03-14T05:37:00,0.6,西南西,1.1,南南西,11.5,97.9,0,0,9,9
339,2022-03-14T05:38:00,0.7,西南西,1.2,北北東,11.4,97.9,0,0,9,9
340,2022-03-14T05:39:00,0.7,西南西,1.3,北北東,11.4,97.9,0,0,9,9
341,2022-03-14T05:40:00,0.7,西北西,1.3,北北東,11.4,98,0,0,9,9
342,2022-03-14T05:41:00,0.7,北西,1.3,北北東,11.5,98,0,0,9,9
343,2022-03-14T05:42:00,0.7,北北西,1.3,北北東,11.5,98,0,0,9,9
344,2022-03-14T05:43:00,0.7,北,1.3,北北東,11.5,98,0,0,9,9
345,2022-03-14T05:44:00,0.7,北,1.3,北北東,11.5,98,0,0,9,9
346,2022-03-14T05:45:00,0.8,北,1.3,北北東,11.5,98,0,0,9,9
347,2022-03-14T05:46:00,0.9,北,1.5,北北西,11.4,97.9,0,0,9,9
348,2022-03-14T05:47:00,1,北,1.9,北北西,11.3,97.8,0,0,9,9
349,2022-03-14T05:48:00,1.1,北,2.2,北北西,11.2,97.8,0,0,9,9
350,2022-03-14T05:49:00,1.2,北,2.5,北北西,11.1,97.8,0,0,9,9
351,2022-03-14T05:50:00,1.3,北,2.5,北北西,11.1,97.8,0,0,9,9
352,2022-03-14T05:51:00,1.5,北,2.5,北北西,11.1,97.9,0,0,9,9
353,2022-03-14T05:52:00,1.6,北北西,2.9,北北西,11.1,97.9,0,0,9,9
354,2022-03-14T05:53:00,1.8,北北西,3,北北西,11,97.9,0,0,9,9
355,2022-03-14T05:54:00,2,北北西,3.1,北北西,11,98,0,0,9,9
356,2022-03-14T05:55:00,2.2,北北西,3.1,北北西,11.1,98,0,0,9,9
357,2022-03-14T05:56:00,2.3,北北西,3.6,北北西,11,98,0,0,9,9
358,2022-03-14T05:57:00,2.5,北北西,3.6,北北西,11.1,98,0,0,9,9
359,2022-03-14T05:58:00,2.6,北北西,3.6,北北西,11.1,98,0,0,9,9
360,2022-03-14T05:59:00,2.6,北北西,3.6,北北西,11.1,98,0,0,9,9
361,2022-03-14T06:00:00,2.7,北北西,3.6,北北西,11.1,98,0,0,9,9
362,2022-03-14T06:01:00,2.8,北北西,3.6,北北西,11.2,98.1,0,0,9,9
363,2022-03-14T06:02:00,2.8,北北西,3.6,北北西,11.1,98.1,0,0,9,9
364,2022-03-14T06:03:00,2.8,北北西,3.6,北北西,11.2,98.1,0,0,9,9
365,2022-03-14T06:04:00,2.8,北北西,3.6,北北西,11.2,98.1,0,0,9,9
366,2022-03-14T06:05:00,2.7,北北西,3.6,北北西,11.2,98.1,0,0,9,9
367,2022-03-14T06:06:00,2.6,北北西,3.5,北西,11.2,98.1,0,0,9,9
368,2022-03-14T06:07:00,2.6,北北西,3.5,北西,11.2,98.1,0,0,9,9
369,2022-03-14T06:08:00,2.5,北北西,3.5,北西,11.1,98.1,0,0,9,9
370,2022-03-14T06:09:00,2.5,北西,3.5,北西,11.1,98.1,0,0,9,9
371,2022-03-14T06:10:00,2.3,北西,3.5,北西,11.1,98.1,0,0,9,9
372,2022-03-14T06:11:00,2.1,北西,3.5,北西,11.1,98.1,0,0,9,9
373,2022-03-14T06:12:00,1.8,北北西,3.2,北北西,11.1,98.1,0,0,9,9
374,2022-03-14T06:13:00,1.6,北北西,2.9,北西,11.1,98.1,0,0,9,9
375,2022-03-14T06:14:00,1.5,北北西,2.9,北西,11.1,98.1,0,0,9,9
376,2022-03-14T06:15:00,1.4,北,2.9,北西,11.1,98.1,0,0,9,9
377,2022-03-14T06:16:00,1.3,北,2.9,北西,11,98,0,0,9,9
378,2022-03-14T06:17:00,1.2,北北東,2.8,北西,11,98,0,0,9,9
379,2022-03-14T06:18:00,1.1,北東,2.8,北西,10.9,98,0,0,9,9
380,2022-03-14T06:19:00,1,東北東,2.8,北西,11,98.1,0,0,9,9
381,2022-03-14T06:20:00,1,東北東,2.5,東北東,10.9,98.1,0,0,9,9
382,2022-03-14T06:21:00,1.1,東北東,2.5,東北東,10.9,98.1,0,0,9,9
383,2022-03-14T06:22:00,1.3,東,2.5,東北東,10.9,98.1,0,0,9,9
384,2022-03-14T06:23:00,1.4,東北東,2.5,東北東,10.9,98.1,0,0,9,9
385,2022-03-14T06:24:00,1.5,東,2.5,東北東,10.9,98.1,0,0,9,9
386,2022-03-14T06:25:00,1.5,東北東,2.5,東北東,11,98.1,0,0,9,9
387,2022-03-14T06:26:00,1.5,東北東,2.5,東北東,10.9,98.2,0,0,9,9
388,2022-03-14T06:27:00,1.5,東北東,2.5,東北東,10.9,98.2,0,0,9,9
389,2022-03-14T06:28:00,1.5,東北東,2.5,東北東,11,98.2,0,0,9,9
390,2022-03-14T06:29:00,1.5,東北東,2.5,東北東,11,98.2,0,0,9,9
391,2022-03-14T06:30:00,1.5,東北東,2.4,東,11,98.1,0,0,9,9
392,2022-03-14T06:31:00,1.4,東北東,2.4,東,10.9,98.1,0,0,9,9
393,2022-03-14T06:32:00,1.3,東北東,2.1,東北東,10.9,98.1,0,0,9,9
394,2022-03-14T06:33:00,1.3,北東,1.8,北東,10.9,98.1,0,0,9,9
395,2022-03-14T06:34:00,1.3,北東,2,北,11,98.2,0,0,9,9
396,2022-03-14T06:35:00,1.4,北東,2,北,11,98.2,0,0,9,9
397,2022-03-14T06:36:00,1.4,北東,2,北,11,98.2,0,0,9,9
398,2022-03-14T06:37:00,1.5,北北東,2,北,11,98.2,0,0,9,9
399,2022-03-14T06:38:00,1.5,北北東,2,北,11,98.2,0,0,9,9
400,2022-03-14T06:39:00,1.5,北北東,2,北,11.1,98.2,0,0,9,9
401,2022-03-14T06:40:00,1.4,北,2,北,11.1,98.3,0,0,9,9
402,2022-03-14T06:41:00,1.4,北,2,北,11.1,98.2,0,0,9,9
403,2022-03-14T06:42:00,1.4,北,2,北,11.1,98.2,0,0,9,9
404,2022-03-14T06:43:00,1.5,北,2,北,11.1,98.2,0,0,9,9
405,2022-03-14T06:44:00,1.4,北,2,北北西,11.1,98.2,0,0,9,9
406,2022-03-14T06:45:00,1.3,北,2,北北西,11.1,98.2,0,0,9,9
407,2022-03-14T06:46:00,1.3,北,2,北北西,11.1,98.2,0,0,9,9
408,2022-03-14T06:47:00,1.3,北,2,北北西,11,98.2,0,0,9,9
409,2022-03-14T06:48:00,1.2,北北東,1.8,北北西,11,98.1,0,0,9,9
410,2022-03-14T06:49:00,1.1,北北東,1.7,北東,11,98.2,0,0,9,9
411,2022-03-14T06:50:00,1.1,北北東,1.7,北東,11.1,98.2,0,0,9,9
412,2022-03-14T06:51:00,1,北東,1.7,北東,11.1,98.3,0,0,9,9
413,2022-03-14T06:52:00,0.9,北東,1.7,北東,11.1,98.2,0,0,9,9
414,2022-03-14T06:53:00,0.9,北東,1.7,北東,11.1,98.2,0,0,9,9
415,2022-03-14T06:54:00,0.9,北東,1.9,北,11.1,98.2,0,0,9,9
416,2022-03-14T06:55:00,0.9,北東,2.1,北,11.2,98.2,0,0,9,9
417,2022-03-14T06:56:00,1,北東,2.5,北北西,11.2,98.2,0,0,9,9
418,2022-03-14T06:57:00,1.1,北北東,3,北,11.2,98.2,0,0,9,9
419,2022-03-14T06:58:00,1.2,北北東,3,北,11.2,98.3,0,0,9,9
420,2022-03-14T06:59:00,1.3,北北東,3,北,11.2,98.3,0,0,9,9
421,2022-03-14T07:00:00,1.4,北,3,北,11.2,98.3,0,0,9,9
422,2022-03-14T07:01:00,1.6,北,3,北,11.2,98.3,0,0,9,9
423,2022-03-14T07:02:00,1.7,北,3.1,北西,11.2,98.2,0,0,9,9
424,2022-03-14T07:03:00,1.8,北,3.1,北西,11.2,98.3,0,0,9,9
425,2022-03-14T07:04:00,2,北,3.2,北,11.3,98.2,0,0,9,9
426,2022-03-14T07:05:00,2,北,3.2,北,11.3,98.3,0,0,9,9
427,2022-03-14T07:06:00,1.9,北,3.2,北,11.3,98.3,0,0,9,9